This is the latest recevied weather packets stored in our database for station/object KO5MO-10. If no packets are shown the sender has not sent any weather packets the latest 1 day(s).
| Time | Temp. | Humidity | Pressure | Rain* | Wind** | Luminosity | Snow |
|---|---|---|---|---|---|---|---|
| 1777894882 | 20.56° C | 37% | 1006.6 hPa | - | - | - | - |
| 1777893982 | 21.11° C | 37% | 1006.7 hPa | - | - | - | - |
| 1777893082 | 21.11° C | 37% | 1006.8 hPa | - | - | - | - |
| 1777892182 | 21.67° C | 36% | 1006.6 hPa | - | - | - | - |
| 1777891282 | 21.11° C | 36% | 1006.6 hPa | - | - | - | - |
| 1777890381 | 21.11° C | 36% | 1006.7 hPa | - | - | - | - |
| 1777889481 | 21.67° C | 35% | 1006.7 hPa | - | - | - | - |
| 1777888581 | 22.22° C | 35% | 1006.6 hPa | - | - | - | - |
| 1777887681 | 22.22° C | 35% | 1006.8 hPa | - | - | - | - |
| 1777886781 | 22.22° C | 35% | 1006.9 hPa | - | - | - | - |
| 1777885881 | 22.78° C | 35% | 1006.6 hPa | - | - | - | - |
| 1777884980 | 23.33° C | 35% | 1006.2 hPa | - | - | - | - |
| 1777884080 | 23.33° C | 34% | 1006.2 hPa | - | - | - | - |
| 1777883180 | 23.89° C | 34% | 1006.1 hPa | - | - | - | - |
| 1777882280 | 23.89° C | 34% | 1006.1 hPa | - | - | - | - |
| 1777881380 | 23.89° C | 33% | 1006.1 hPa | - | - | - | - |
| 1777880479 | 23.89° C | 33% | 1006.4 hPa | - | - | - | - |
| 1777879579 | 24.44° C | 32% | 1006.2 hPa | - | - | - | - |
| 1777878678 | 24.44° C | 31% | 1006.3 hPa | - | - | - | - |
| 1777877778 | 24.44° C | 31% | 1006.2 hPa | - | - | - | - |
| 1777876878 | 25° C | 30% | 1006.1 hPa | - | - | - | - |
| 1777875978 | 25° C | 29% | 1005.8 hPa | - | - | - | - |
| 1777875077 | 25° C | 29% | 1005.7 hPa | - | - | - | - |
| 1777874177 | 25.56° C | 28% | 1005.9 hPa | - | - | - | - |
| 1777873277 | 25.56° C | 26% | 1006.2 hPa | - | - | - | - |
* Rain since midnight (hover to see other rain measurements)
** Current wind speed in m/s (hover to see current wind gust speed)